Temp
23 24 24 25 26 27 29 34 35 33 35 36 35 34 33 33 30 27 29 29 27 25 22 21 21 22 22 22 22 21 21 21 21 21 21 21 21 21 21 22 22 22 21 21 21 21 21 21 21
26 27 27 25 27 30 30 33 31 35 36 35 34 28 32 31 31 31 30 29 27 25 24 22 21 21 21 22 22 21 21 21 21 21 21 21 21 21 21 21 21 21 21 21 21 21 21 21 21
26 29 27 24 27 32 27 30 35 36 36 36 32 29 33 31 31 30 30 29 28 27 25 21 21 21 21 21 22 21 21 21 21 21 21 21 21 21 21 21 21 21 21 21 21 21 21 21 21
28 26 29 28 31 33 35 36 36 36 36 36 34 31 34 33 32 32 29 30 29 26 24 21 21 21 21 21 21 21 21 21 21 21 21 21 21 21 21 21 21 21 21 21 21 21 21 21 21
28 25 28 33 35 36 36 37 37 36 36 36 33 32 32 32 32 32 31 31 29 26 23 22 22 22 21 21 21 21 21 21 21 21 21 21 21 21 21 21 21 21 21 21 21 21 21 21 21
22 24 27 33 33 35 32 32 33 37 36 35 34 32 32 32 32 32 32 30 29 26 25 22 22 22 22 21 21 21 21 21 21 21 21 21 21 21 21 21 21 21 21 21 21 21 21 21 21
21 24 31 29 32 34 33 31 31 37 36 35 34 31 33 33 32 33 32 30 29 28 25 24 23 22 21 21 21 21 21 21 21 21 21 21 21 21 21 21 21 21 21 21 22 22 21 21 21
28 28 30 26 28 33 31 33 36 36 35 37 35 32 31 33 33 33 33 31 31 28 27 25 24 23 22 22 22 21 21 21 21 21 21 22 22 22 22 22 23 22 21 21 22 21 21 21 21
26 24 30 31 29 35 37 37 37 37 36 36 35 34 34 33 33 33 33 32 31 30 29 28 26 25 24 23 22 21 22 22 22 22 22 22 23 22 22 23 23 23 22 22 22 22 21 22 22
24 25 34 37 37 37 37 37 37 36 36 35 35 35 33 33 33 33 33 33 32 32 31 29 28 27 25 25 23 23 22 22 23 23 24 23 24 23 23 23 24 23 23 22 22 22 22 21 22
26 29 29 39 37 39 38 37 38 37 35 35 34 33 33 33 33 33 33 33 32 32 31 29 29 28 27 25 25 24 24 24 24 25 25 25 25 25 25 25 24 24 24 23 23 24 22 23 24
32 38 38 38 39 36 36 38 38 36 35 37 35 34 33 33 34 34 33 33 32 32 31 30 29 28 28 27 26 27 26 27 26 26 26 25 26 26 26 25 24 24 24 24 24 23 23 23 24
39 39 39 39 38 37 36 31 34 37 37 37 35 35 34 34 34 34 34 33 33 32 31 31 29 28 28 28 28 28 28 28 27 26 26 26 26 26 26 25 24 24 24 24 24 24 24 23 23
40 35 36 39 29 28 32 30 27 37 37 36 35 34 34 35 35 34 34 34 33 32 31 30 28 27 27 27 27 27 27 28 28 28 27 27 26 26 26 25 24 24 24 24 24 23 23 23 23
41 28 29 37 30 29 33 30 29 33 37 36 35 35 35 35 35 35 34 34 33 33 32 30 28 27 26 26 26 26 27 28 28 28 27 26 26 26 25 25 24 24 24 24 24 23 23 23 23
33 36 35 39 39 32 29 23 29 31 35 35 35 35 35 35 36 35 34 34 34 33 31 30 30 28 27 27 25 26 28 28 28 28 27 26 25 25 24 24 24 24 24 23 22 22 23 23 22
31 35 38 38 40 32 29 24 26 31 35 36 35 35 35 36 36 35 34 34 34 32 31 30 30 29 27 27 26 27 28 28 28 28 28 27 26 25 24 24 24 24 24 23 22 22 22 23 23
30 35 40 39 40 40 35 28 30 32 37 37 36 36 35 36 36 35 35 34 34 32 31 30 30 29 28 27 27 27 28 28 28 28 27 27 27 26 25 24 23 23 22 22 21 21 22 23 23
36 40 40 40 40 39 34 31 35 37 38 37 37 36 35 36 37 35 35 34 33 32 31 30 29 29 28 27 27 27 28 28 28 28 27 27 26 26 25 24 24 24 23 21 21 21 22 22 23
40 40 39 41 41 40 38 35 35 38 38 38 37 37 36 36 37 36 35 35 33 32 30 30 29 28 28 27 28 28 29 29 29 29 28 27 27 26 25 24 24 24 23 22 22 22 23 23 24
40 40 40 39 40 40 38 35 31 38 38 38 39 38 37 37 37 36 36 35 33 32 31 29 29 28 28 28 28 29 29 29 29 29 24 24 26 26 25 25 24 24 23 23 23 23 23 23 24
39 41 40 40 39 38 38 35 32 37 38 38 38 38 38 37 37 37 36 36 35 32 31 30 29 28 28 28 28 29 28 29 29 28 25 24 25 26 25 25 24 24 24 24 24 23 23 23 23
39 41 40 39 39 39 39 38 38 39 38 38 38 39 39 38 37 37 37 36 36 34 33 30 29 29 28 27 28 29 29 29 30 28 27 27 26 26 25 24 24 25 25 24 24 23 23 23 23
41 40 40 40 39 35 33 37 38 38 40 39 39 39 39 39 38 38 37 36 36 35 33 32 29 29 28 27 28 28 29 29 29 29 28 28 27 25 25 25 25 25 24 24 24 24 23 23 24
40 39 37 37 38 30 35 38 40 41 41 41 40 39 40 39 39 37 38 37 36 35 34 33 30 29 28 28 27 28 28 28 29 29 29 29 27 26 25 25 25 25 24 24 24 24 23 23 23
40 40 38 36 37 35 39 40 40 42 41 41 41 40 40 39 39 39 38 37 36 36 34 34 30 29 28 28 28 27 27 27 28 29 29 29 28 27 25 25 25 24 24 24 24 24 24 23 23
39 39 41 39 40 39 40 41 42 42 41 41 40 40 39 40 40 39 38 38 37 36 35 34 30 29 29 28 27 27 27 27 28 28 29 29 29 27 25 25 25 24 24 24 24 24 23 23 23
40 41 39 40 36 36 39 39 39 39 40 40 41 40 40 40 39 39 39 39 38 37 36 35 32 30 29 29 28 27 27 27 28 29 29 29 29 27 25 25 24 24 23 23 23 24 23 22 22
39 39 39 40 40 38 37 37 40 39 40 40 41 41 40 40 40 40 39 39 38 38 37 36 35 33 31 30 29 28 27 27 27 28 28 28 28 27 25 25 24 24 23 23 23 22 22 21 21
40 40 40 38 37 39 39 35 41 41 41 40 40 41 41 40 40 40 39 38 38 38 37 36 35 34 32 31 30 28 28 27 27 27 28 27 27 26 25 24 24 23 23 23 22 22 21 21 20
Height
749 751 751 752 771 762 761 737 719 735 728 714 718 726 734 729 748 784 768 772 780 788 794 797 801 803 806 808 810 813 815 817 818 819 821 822 823 824 825 824 825 825 827 828 829 831 832 833 832
746 749 752 755 766 764 765 735 745 725 718 717 723 745 742 747 744 755 765 774 781 789 795 799 802 805 808 810 813 815 817 819 820 821 823 824 825 826 827 827 827 827 828 829 831 832 834 835 834
748 748 757 767 763 758 783 746 727 722 714 720 736 743 739 747 753 760 768 774 781 788 794 799 802 806 809 812 814 816 819 820 821 823 824 825 826 828 828 829 829 829 830 831 832 833 835 837 837
751 754 751 759 757 742 735 726 720 722 720 718 729 752 740 747 754 760 770 775 781 790 796 800 804 807 810 813 815 817 820 821 822 824 825 826 826 828 829 830 830 830 830 831 833 834 836 837 839
751 759 768 742 735 725 720 716 714 724 724 725 733 756 752 753 758 763 770 776 784 791 798 803 806 809 812 814 816 818 820 822 823 824 825 827 827 828 829 830 830 830 830 832 833 834 835 837 838
764 771 778 755 748 728 732 726 728 722 729 734 741 751 757 756 761 764 769 775 781 791 800 804 808 811 814 815 817 819 821 822 823 825 827 829 829 830 830 830 830 830 830 831 832 834 835 836 837
760 779 763 765 755 739 738 730 736 722 729 738 738 760 755 758 763 765 769 776 783 789 799 806 809 812 814 816 818 820 821 822 824 827 830 833 834 833 832 831 830 829 830 831 832 834 835 836 837
739 763 762 771 769 749 740 730 717 723 736 725 732 761 764 758 763 765 770 775 782 789 797 804 809 812 814 817 818 820 820 822 825 829 833 832 831 832 834 833 830 829 829 830 832 833 834 835 836
742 776 765 759 768 739 719 725 719 719 729 728 732 743 751 759 762 765 770 775 780 786 792 798 804 808 812 815 818 819 820 822 825 829 830 830 825 830 832 833 831 829 828 829 830 832 834 834 834
766 778 738 714 718 723 722 721 720 728 729 737 738 743 754 760 763 765 772 776 781 784 788 796 801 805 810 814 816 818 820 821 823 827 828 828 826 827 831 832 830 828 827 828 830 832 833 834 835
752 759 739 706 712 705 714 718 711 725 736 735 747 750 755 759 763 766 772 776 781 782 788 796 800 804 808 811 813 815 817 818 821 826 827 828 827 829 829 830 828 827 827 827 828 830 832 835 834
738 712 713 709 705 718 727 711 717 725 733 725 738 747 754 759 762 765 769 774 779 782 789 795 800 805 808 810 811 812 814 816 818 822 825 827 827 828 829 828 828 827 826 827 827 831 831 832 832
715 710 706 705 713 716 718 734 727 724 718 727 738 747 754 757 761 763 767 772 778 783 790 795 801 806 807 810 811 812 813 814 816 819 822 824 825 826 825 825 825 825 825 826 827 828 829 826 830
707 724 718 706 742 732 738 753 753 727 718 731 741 748 752 755 758 762 765 770 776 783 789 794 801 806 808 811 812 813 813 814 815 816 817 821 822 822 822 822 822 823 823 824 825 829 829 827 828
699 753 743 716 729 744 736 765 770 737 724 736 743 747 750 753 756 761 765 770 775 782 788 793 800 806 808 811 813 814 814 814 814 814 815 817 818 819 818 819 820 821 821 821 823 825 827 826 827
743 733 746 710 709 736 743 799 748 738 735 740 743 745 748 749 752 759 764 769 774 780 786 793 797 803 808 810 812 812 812 812 812 813 814 815 817 817 818 817 818 820 819 819 819 822 823 824 823
758 756 732 725 703 731 744 793 752 736 734 738 742 743 744 746 749 757 763 768 773 780 786 793 797 800 805 808 810 810 810 811 812 813 814 815 817 818 819 819 817 817 816 815 817 819 821 822 822
778 753 716 725 711 707 730 754 738 733 724 730 735 739 743 744 746 754 759 764 770 778 785 793 797 799 802 805 808 809 808 809 811 812 813 813 815 816 819 818 818 814 813 812 814 817 819 820 821
734 720 719 710 703 715 738 745 717 717 720 723 728 733 740 741 741 750 756 761 769 775 782 791 795 798 801 804 807 807 806 808 809 811 813 815 815 814 816 817 817 815 812 812 813 816 818 820 820
719 724 725 707 698 708 723 738 727 717 717 714 720 725 733 738 739 745 752 757 764 772 780 786 793 796 799 802 803 804 803 805 809 812 814 817 819 814 812 815 816 814 812 812 814 817 819 819 819
719 721 720 727 708 703 721 743 740 710 709 710 708 713 721 731 734 740 748 753 761 768 775 781 789 792 796 799 801 801 802 805 810 811 815 811 812 815 811 813 814 814 812 812 813 816 818 818 819
732 700 709 717 724 743 716 766 746 719 714 712 710 710 715 721 728 734 742 749 755 763 770 777 783 789 793 796 799 799 802 804 805 802 806 811 812 814 809 813 814 814 812 812 814 816 816 817 818
723 698 713 715 724 720 719 735 726 706 718 714 707 705 706 711 721 727 737 746 750 757 765 773 779 786 790 793 795 797 798 800 802 805 808 811 812 807 809 814 814 814 812 812 814 815 816 816 817
700 712 711 711 717 761 752 736 730 719 704 702 697 698 701 706 712 722 731 740 747 753 761 768 774 780 786 789 792 794 796 797 800 801 803 805 804 806 810 812 813 812 812 813 814 816 816 817 817
709 727 753 750 741 809 734 727 709 691 686 686 690 694 695 702 708 718 725 733 742 748 755 762 769 774 780 785 789 791 793 795 796 799 799 801 803 806 808 810 811 812 813 815 817 818 818 818 818
713 717 746 770 750 757 708 726 713 679 679 681 682 686 692 698 703 710 719 727 735 742 750 756 762 769 775 780 784 787 790 792 793 795 797 798 798 803 806 808 810 812 815 817 817 819 819 819 819
718 728 702 724 712 726 710 702 681 677 685 685 690 690 696 696 699 705 712 721 729 736 743 750 757 764 769 773 778 782 785 788 790 792 795 796 798 801 805 806 810 812 815 817 819 818 819 821 820
708 697 730 720 762 765 723 720 721 704 701 691 689 691 693 694 698 702 708 714 722 731 737 745 751 758 763 768 773 777 780 782 786 789 790 793 795 797 800 804 808 810 812 815 816 817 820 822 823
713 722 715 711 715 745 753 743 693 701 696 692 687 685 689 693 696 699 706 711 717 723 730 737 744 750 756 761 767 771 774 777 780 783 786 789 792 793 796 801 805 807 810 814 816 816 819 819 822
693 704 705 736 741 719 721 753 680 685 686 686 687 686 687 690 693 697 702 710 713 719 724 729 736 742 748 754 760 765 768 771 774 778 783 787 791 791 795 801 806 810 814 815 815 816 817 820 822
Wind_Speed
14 11 11 5 2 5 5 12 19 15 16 17 21 10 16 15 11 14 26 23 27 22 19 19 19 19 19 20 19 17 16 16 17 16 15 15 14 13 13 13 12 12 11 10 12 12 12 11 11
15 9 3 4 3 3 5 11 9 10 18 12 20 23 15 27 24 18 20 28 28 22 21 19 20 20 19 20 19 17 15 14 14 14 13 14 12 12 11 11 11 10 9 10 10 10 9 9 8
14 8 2 3 3 9 7 6 14 13 9 12 15 12 17 26 24 20 31 25 25 26 23 21 21 20 18 18 18 14 13 13 12 12 12 12 11 10 9 9 9 9 8 8 8 8 7 6 6
8 6 5 3 8 11 14 10 11 12 12 18 20 14 16 24 24 30 28 28 28 26 22 22 20 19 18 17 16 14 12 12 11 11 11 10 9 9 7 7 7 6 6 6 6 6 4 4 4
9 2 4 3 13 16 13 5 11 11 10 14 24 20 17 28 26 29 29 26 29 25 23 21 21 19 18 16 14 13 12 11 10 10 9 8 8 7 6 6 5 5 5 4 5 4 3 3 3
5 5 5 11 17 13 15 19 7 15 10 18 21 19 14 26 24 25 26 34 29 27 22 20 19 18 17 15 14 13 11 10 9 8 7 7 6 5 6 6 6 6 5 4 4 4 3 4 4
11 3 8 8 5 8 9 12 7 14 15 19 18 17 16 18 21 22 24 30 29 28 23 19 17 16 15 13 14 12 10 9 8 7 6 4 3 3 5 7 7 6 6 5 2 3 4 5 5
7 2 5 6 2 4 15 11 16 17 12 21 18 13 18 20 21 21 25 27 27 30 23 20 18 15 14 12 12 11 10 8 8 7 5 4 4 4 5 6 7 7 7 5 4 4 5 6 7
6 3 3 7 6 9 7 8 13 12 13 8 16 16 21 24 21 21 20 22 25 27 24 25 22 20 19 16 13 11 10 9 8 7 8 7 5 9 9 10 9 6 7 6 6 6 7 8 10
3 2 0 12 12 14 8 8 11 8 13 10 19 21 25 23 20 19 18 16 16 17 21 28 24 24 21 17 14 11 10 10 10 9 8 11 7 10 12 8 5 6 6 6 5 5 8 8 8
12 5 16 12 18 10 11 10 12 7 11 17 18 22 21 21 19 19 20 19 17 20 26 26 18 21 18 18 16 17 15 12 11 12 6 9 13 12 11 12 4 3 5 6 10 7 8 7 11
4 10 1 13 7 11 8 4 10 9 12 18 20 21 19 19 16 19 19 21 17 17 18 14 15 17 14 13 15 18 17 12 15 13 9 3 6 12 7 11 5 6 7 9 7 5 9 10 7
8 2 5 6 12 3 11 20 14 14 16 18 19 20 19 17 17 20 19 20 19 17 17 16 18 10 11 12 7 8 8 7 13 11 8 8 6 6 4 5 3 6 5 6 9 8 8 12 7
5 25 26 11 12 19 12 14 14 8 18 18 19 19 17 17 17 19 19 19 20 19 17 22 19 13 11 9 9 4 5 7 4 7 11 8 5 4 6 6 7 8 10 12 7 3 5 8 6
10 24 21 7 13 4 16 7 5 15 14 17 18 16 16 16 19 18 17 17 20 19 18 21 20 15 13 8 7 8 8 7 7 7 7 7 6 6 6 8 9 9 11 12 13 11 11 10 12
22 5 11 9 14 8 22 9 24 22 7 15 18 16 16 18 18 19 17 18 17 18 21 20 18 17 14 11 10 9 10 7 6 4 6 8 8 8 6 9 10 13 10 11 4 8 5 6 9
7 12 13 7 5 14 12 6 29 21 17 16 17 16 15 15 16 19 18 18 19 18 21 17 14 20 18 15 11 10 10 9 9 6 6 8 7 8 8 11 12 13 13 12 11 9 6 6 7
12 15 4 7 5 1 14 17 13 22 17 18 17 18 15 15 17 21 20 21 23 23 22 15 14 14 18 16 12 11 9 10 8 10 9 11 8 8 7 9 11 11 9 4 7 9 7 6 7
23 14 10 8 4 5 7 21 6 16 15 18 17 19 18 16 16 23 23 23 22 25 24 18 17 16 17 15 14 12 13 13 13 14 13 10 5 6 6 7 7 5 6 5 0 3 7 7 8
12 13 4 5 6 2 11 12 13 11 16 16 16 18 19 18 17 19 24 24 29 27 27 24 19 20 18 16 16 16 15 16 13 10 8 2 6 5 2 3 4 5 4 5 2 3 2 4 4
14 14 10 7 10 5 6 3 10 10 15 14 18 16 19 19 19 18 18 24 30 29 29 29 23 23 22 18 16 13 9 5 6 5 16 10 9 4 3 1 1 3 6 4 3 1 2 4 3
14 10 10 9 11 10 10 5 11 14 14 17 15 17 18 20 18 18 20 22 27 31 31 31 28 23 22 21 15 15 12 11 14 14 13 17 6 5 3 2 1 2 1 5 4 1 1 2 4
15 12 10 14 14 18 13 8 9 8 12 16 17 17 18 19 19 20 20 24 23 29 28 30 29 25 22 23 20 16 16 15 12 20 12 9 6 8 6 4 3 1 4 4 3 2 3 3 3
15 15 14 16 15 2 21 18 7 6 9 18 17 16 17 17 19 16 25 26 23 25 26 29 32 29 27 24 23 21 14 18 10 6 9 7 9 11 9 7 4 2 2 3 5 7 7 7 6
15 15 11 14 13 1 22 16 9 11 10 4 15 14 16 15 15 16 16 19 24 24 27 25 32 29 28 25 22 24 21 14 14 6 6 4 15 13 12 9 4 4 4 5 4 6 5 9 9
13 16 11 17 15 8 23 5 7 10 14 6 5 14 11 17 17 19 18 19 25 25 31 28 34 28 27 25 24 22 26 18 16 13 13 14 13 15 13 10 8 4 6 5 7 5 8 6 6
14 12 17 17 17 13 2 9 12 16 14 9 12 10 11 14 13 13 18 20 22 23 28 29 33 30 29 26 25 24 23 23 20 18 16 12 5 13 14 12 10 10 9 6 4 6 7 6 6
13 15 13 9 10 9 5 5 11 14 11 8 10 11 12 12 14 15 12 20 23 26 24 26 29 30 28 25 26 25 25 26 24 21 17 16 14 15 18 15 15 14 12 11 7 7 8 4 11
13 14 14 16 12 8 9 4 13 11 6 10 11 9 11 11 13 12 13 14 22 23 26 27 28 30 31 29 27 26 26 26 27 23 23 20 13 18 19 19 19 18 17 12 6 15 12 10 9
13 16 16 12 15 12 9 5 12 11 8 10 11 12 10 8 9 11 13 14 16 19 23 27 29 29 31 32 29 30 28 27 25 27 22 20 17 20 20 20 19 16 13 11 9 10 11 10 8
Wind_Direction
183 183 195 214 220 241 353 93 57 37 78 73 72 74 71 49 80 106 143 142 126 128 132 132 136 131 136 131 130 130 128 125 123 114 112 111 110 104 99 99 101 100 99 101 99 96 93 94 95
182 178 142 306 233 122 14 54 117 95 84 60 76 48 70 91 90 116 135 123 122 128 132 138 136 135 139 139 138 134 135 131 126 125 122 118 114 110 105 102 100 101 106 103 104 104 102 100 97
260 234 252 208 249 70 150 250 84 105 126 82 103 128 95 105 118 140 121 131 127 130 130 139 138 137 138 147 146 144 141 136 133 130 129 126 123 117 111 110 111 109 111 108 109 104 111 113 110
241 350 269 239 72 157 85 91 85 111 61 120 100 80 96 95 120 125 130 133 126 120 126 134 135 139 141 143 143 144 142 142 140 139 139 136 135 132 130 126 126 127 121 113 112 118 122 115 117
17 50 273 138 83 86 112 106 143 103 91 87 107 122 91 122 124 132 134 128 119 123 131 136 138 139 141 139 141 147 149 150 151 151 151 154 153 152 151 153 152 146 126 133 137 134 148 171 170
56 343 300 41 45 72 54 13 351 84 87 87 104 107 111 118 136 144 143 140 138 130 135 139 141 143 141 141 144 147 149 152 154 155 156 162 157 167 168 170 170 161 146 139 139 154 176 188 200
153 264 78 31 56 107 102 174 275 97 115 126 119 130 128 140 136 146 145 127 133 136 137 144 146 147 148 149 148 150 154 162 162 164 163 141 132 169 177 182 178 167 162 162 159 184 198 214 210
117 34 38 130 269 35 142 181 37 92 91 112 125 133 145 138 157 145 141 139 153 136 143 152 150 154 154 153 152 153 157 165 172 173 161 177 195 195 203 192 171 173 178 192 202 211 220 218 223
63 49 178 167 179 122 150 100 127 108 150 124 107 146 144 146 156 154 143 143 134 145 151 157 158 163 165 163 161 162 166 176 167 161 165 145 204 214 215 216 200 185 190 196 209 218 230 238 242
163 229 267 165 164 128 126 109 136 130 122 112 122 123 139 160 161 148 147 152 152 151 161 153 154 156 163 162 160 167 179 186 178 176 186 180 195 171 172 203 207 204 204 205 207 239 247 250 266
177 230 15 72 66 90 121 133 140 143 133 129 131 140 152 158 168 152 164 163 172 167 137 152 133 139 162 151 156 181 190 195 205 174 184 223 206 185 198 209 236 193 205 206 236 275 232 236 272
114 237 171 97 69 88 143 134 118 121 152 128 141 149 159 164 173 162 172 161 180 148 137 161 150 148 177 145 186 183 178 189 183 178 185 174 189 196 201 210 203 197 234 244 235 254 249 254 276
267 125 217 105 39 50 260 72 286 103 114 124 142 154 164 170 175 168 171 164 167 159 155 167 151 150 150 148 198 177 162 180 146 161 173 197 216 181 199 195 197 219 251 255 235 220 237 271 255
351 31 348 118 115 335 19 7 40 103 114 130 150 162 167 174 178 165 175 167 162 163 164 144 148 167 163 179 170 194 203 196 187 217 191 194 229 213 221 245 236 256 256 258 259 227 286 287 256
305 103 244 234 131 157 110 309 262 288 118 143 159 166 169 176 181 166 175 170 168 167 163 143 150 168 167 180 173 194 197 198 200 207 186 182 218 245 239 268 272 261 253 256 250 259 261 261 258
4 256 197 107 112 119 94 313 296 290 232 157 166 171 173 184 180 162 177 176 173 170 154 151 172 164 172 176 177 201 210 207 202 194 205 204 213 241 255 275 271 277 281 266 274 231 253 272 278
324 291 289 118 121 162 97 259 256 249 232 170 171 181 183 183 170 161 180 182 168 156 149 159 181 164 168 175 186 226 234 207 219 215 225 225 228 239 256 270 277 291 301 276 239 243 249 284 286
242 250 5 98 73 245 151 190 215 212 191 172 177 176 190 188 177 165 177 187 165 153 153 175 174 162 164 174 195 219 223 213 226 226 238 228 224 245 272 281 301 320 346 299 233 224 224 256 290
216 283 304 62 104 326 226 44 210 166 192 173 175 176 183 198 183 166 179 171 164 156 155 176 175 170 161 171 195 221 230 215 221 238 234 210 234 258 270 299 323 347 7 41 300 204 217 258 269
301 290 316 304 21 344 14 140 206 189 194 186 182 174 178 196 192 170 179 170 165 162 160 168 180 175 184 197 202 208 226 219 218 216 195 190 262 238 309 293 343 349 47 72 104 200 275 284 296
253 264 20 343 310 321 344 83 257 232 190 209 183 182 177 186 198 181 186 184 163 166 161 165 181 184 193 198 207 230 251 246 185 179 64 298 217 225 148 203 298 70 101 109 110 138 300 300 341
279 359 350 303 291 284 171 176 236 217 182 195 210 183 185 181 195 178 188 194 181 163 167 170 179 188 196 206 214 211 218 232 223 204 167 198 215 155 118 176 214 12 137 127 108 191 311 357 6
262 322 330 291 283 272 175 245 154 140 191 193 202 200 194 182 179 185 188 191 204 171 173 170 176 187 198 204 210 214 218 240 254 146 154 180 168 151 162 171 165 236 11 123 112 99 73 77 70
275 300 284 271 257 61 309 302 153 169 156 186 187 197 193 185 174 190 178 188 199 181 173 175 176 189 199 203 211 221 224 236 263 200 154 186 178 172 167 164 181 213 338 99 92 83 78 67 50
237 249 273 273 233 257 244 257 103 83 63 40 161 169 187 180 182 167 184 182 186 190 181 183 176 181 193 201 206 220 221 229 246 252 215 218 174 178 175 169 178 164 135 98 94 99 87 82 66
262 233 256 296 310 193 226 136 104 95 101 86 105 147 187 179 189 180 179 185 185 189 181 190 174 179 184 195 208 214 219 222 226 230 232 224 203 182 176 159 158 155 121 141 142 93 114 91 77
260 225 245 278 302 299 6 24 124 105 104 121 114 128 163 183 194 182 171 177 179 185 183 187 169 177 182 191 204 208 213 213 217 222 227 238 149 173 163 163 161 155 156 155 158 121 100 83 81
273 275 269 227 259 278 256 350 113 98 114 120 138 147 157 183 190 176 196 178 181 185 189 187 172 177 184 192 199 204 207 213 211 222 219 213 211 180 168 170 170 170 166 175 175 162 122 125 71
227 239 257 279 280 285 295 84 111 113 119 121 108 134 139 165 184 189 175 209 181 189 184 189 190 184 186 190 196 201 206 209 215 215 215 208 196 186 178 180 180 179 178 181 167 127 131 120 103
235 253 216 240 252 275 306 162 115 116 118 113 92 70 96 130 168 186 166 195 187 190 186 190 190 192 188 189 196 200 204 205 208 213 214 206 201 189 184 179 183 182 182 179 164 156 143 143 131